Location: *
(60.1759°S, 155.0663°W)
Time: 23:42:42
(UTC+00:00)

Cosmos 1408 - Pass Details

Date: 17 September 2019
Orbit: 472 x 495 km, 82.6° (Epoch: 21 October)

Event Time Altitude Azimuth Distance (km) Brightness Sun altitude
Exits shadow 12:34:33 33° 185° (S) 869 4.1 -26.2°
Drops below altitude 10° 12:36:51 10° 171° (S) 1,735 6.1 -26.0°
Sets 12:39:00 0° 167° (SSE) 2,623 7.3 -25.8°
